[[{"header":{"parameterUnit":"m.s-1","parameterCategory":1,"la1":30.2991,"la2":30.254,"lo1":-89.0895,"lo2":-89.0444,"dy":0.0017,"dx":0.0017,"nx":28,"ny":28,"refTime":"2023-10-26T21:00:00:Z","depth":0,"parameterNumber":2,"parameterNumberName":"U-component_of_WINDS"},"data":[0,0,0,0,0,0,0,0,0,0,0,0,0,0,0,0,0,0,0,0,0,0,0,0,0,0,0,0,0,0,0,0,0,0,0,0,0,0,0,0,0,0,0,0,0,0,0,0,0,0,0,0,0,0,0,0,0,0,-2.2013,-2.2013,0,-2.2028,-2.2029,-2.2029,-2.1958,-2.1956,-2.1953,-2.1952,-2.1967,-2.1969,-2.1971,0,0,0,0,0,0,0,0,0,0,0,0,0,-2.1922,-2.1924,-2.2013,-2.2013,-2.2014,-2.2028,-2.2029,-2.2029,-2.1958,-2.1955,-2.1953,-2.1951,-2.1966,-2.1969,-2.1972,0,0,0,0,0,0,0,0,0,0,0,0,0,-2.1952,-2.1925,-2.2013,-2.198,-2.1977,-2.2028,-2.2029,-2.2029,-2.1959,-2.1955,-2.1952,-2.1949,-2.1965,-2.1969,-2.1972,-2.2056,0,0,-2.1983,-2.1984,0,0,0,0,0,0,0,0,-2.1951,-2.1956,-2.1985,-2.1982,-2.1979,-2.1988,-2.2002,-2.2038,-2.1959,-2.1966,-2.1951,-2.1948,-2.1976,-2.1979,-2.1988,-2.2056,-2.2057,-2.1983,-2.1985,-2.1987,-2.1988,0,0,0,0,0,0,0,-2.1949,-2.1954,-2.2019,-2.1985,-2.1982,-2.1964,-2.1965,-2.2009,-2.1988,-2.1965,-2.196,-2.1963,-2.1974,-2.1985,-2.1988,-2.2057,-2.1983,-2.1986,-2.1988,-2.199,-2.2194,-2.2197,0,0,0,0,0,0,-2.1951,-2.1953,-2.2019,-2.202,-2.1957,-2.1968,-2.1969,-2.1988,-2.1987,-2.1984,-2.1965,-2.1959,-2.1981,-2.1984,-2.1988,-2.2085,-2.1987,-2.199,-2.1992,-2.219,-2.2194,-2.2198,0,0,0,0,0,0,-2.1949,-2.1957,-2.2018,-2.1985,-2.1991,-2.1973,-2.1995,-2.199,-2.2001,-2.1988,-2.1984,-2.198,-2.1978,-2.1984,-2.2039,-2.2085,-2.1991,-2.1995,-2.2187,-2.2192,-2.2196,-2.2281,0,0,0,0,0,0,-2.1947,-2.1957,-2.1989,-2.1986,-2.1993,-2.2069,-2.1998,-2.1993,-2.2007,-2.2,-2.2001,-2.1998,-2.1976,-2.2034,-2.2043,-2.2088,-2.1997,-2.2182,-2.2189,-2.2195,-2.2274,-2.2288,-2.23,0,0,0,0,0,-2.1944,-2.2012,-2.1991,-2.1999,-2.2033,-2.2072,-2.2076,-2.205,-2.2011,-2.2043,-2.2034,-2.1998,-2.2079,-2.2041,-2.205,-2.2097,-2.2179,-2.2187,-2.2194,-2.2268,-2.2285,-2.23,0,0,0,0,0,0,-2.2021,-2.2011,-2.1988,-2.2057,-2.2066,-2.206,-2.2099,-2.2069,-2.2089,-2.2081,-2.2048,-2.2049,-2.211,-2.2109,-2.2067,-2.2177,-2.2122,-2.2132,-2.2175,-2.2192,-2.2205,-2.2203,-2.2,0,0,0,0,0,-2.2046,-2.2078,-2.2068,-2.2131,-2.2136,-2.2117,-2.2133,-2.2112,-2.212,-2.2123,-2.2119,-2.2127,-2.2155,-2.2173,-2.2198,-2.2274,-2.2273,-2.2311,-2.2324,-2.2335,-2.2343,-2.2382,-2.2399,-2.2223,-2.2223,-2.2222,0,0,-2.2098,-2.2097,-2.2119,-2.2146,-2.215,-2.2185,-2.2121,-2.216,-2.2184,-2.2129,-2.2181,-2.2178,-2.2186,-2.2252,-2.2281,-2.2253,-2.2392,-2.2344,-2.2353,-2.2355,-2.2392,-2.2409,-2.2423,-2.2228,-2.2227,-2.2226,0,0,-2.2209,-2.2212,-2.2264,-2.227,-2.2277,-2.2264,-2.2277,-2.2275,-2.2271,-2.2323,-2.2282,-2.2311,-2.2359,-2.2366,-2.2376,-2.2491,-2.2458,-2.25,-2.2568,-2.2607,-2.2621,-2.2633,-2.2673,-2.2688,-2.2508,-2.2509,-2.2509,0,-2.2273,-2.2323,-2.2294,-2.2336,-2.2349,-2.2301,-2.2353,-2.236,-2.2375,-2.2385,-2.2354,-2.2412,-2.2414,-2.2481,-2.2509,-2.2519,-2.2532,-2.2499,-2.2621,-2.2633,-2.2644,-2.2682,-2.2697,-2.2514,-2.2513,-2.2513,-2.2512,0,-2.24,-2.2436,-2.2477,-2.2492,-2.251,-2.2557,-2.2535,-2.2556,-2.2534,-2.2525,-2.2578,-2.2578,-2.2602,-2.2616,-2.2595,-2.268,-2.2662,-2.2627,-2.2571,-2.2667,-2.2701,-2.2716,-2.2521,-2.2519,-2.2517,-2.2516,0,0,-2.2559,-2.2559,-2.2575,-2.2581,-2.2586,-2.2613,-2.2657,-2.268,-2.2699,-2.2711,-2.2747,-2.2789,-2.2756,-2.2768,-2.2747,-2.2781,-2.2871,-2.2741,-2.2741,-2.2765,-2.2964,-2.299,-2.3007,-2.285,-2.2853,-2.2855,-2.2963,0,-2.2668,-2.2744,-2.272,-2.2797,-2.2829,-2.2784,-2.2822,-2.283,-2.2822,-2.2848,-2.2839,-2.2869,-2.2824,-2.283,-2.2862,-2.2854,-2.2911,-2.2846,-2.2883,-2.2884,-2.2881,-2.3025,-2.3053,-2.3155,-2.2977,-2.2979,-2.2981,0,-2.2805,-2.2823,-2.2903,-2.2902,-2.2914,-2.295,-2.2968,-2.2994,-2.3001,-2.2993,-2.3006,-2.2978,-2.3021,-2.2967,-2.3025,-2.2982,-2.2996,-2.2994,-2.2997,-2.2999,-2.2937,-2.303,-2.3187,-2.3202,-2.3002,-2.3,-2.2999,0,-2.2912,-2.2956,-2.3009,-2.3016,-2.3017,-2.3043,-2.3044,-2.3048,-2.3063,-2.308,-2.309,-2.3112,-2.3123,-2.3141,-2.312,-2.3082,-2.3182,-2.3125,-2.3175,-2.3176,-2.3197,-2.3196,-2.3358,-2.3209,-2.3208,-2.3208,-2.3208,0,-2.3035,-2.3085,-2.3057,-2.309,-2.3145,-2.3117,-2.3172,-2.3169,-2.3173,-2.3204,-2.3167,-2.3196,-2.3167,-2.3194,-2.3178,-2.3229,-2.3235,-2.3229,-2.3224,-2.3232,-2.3232,-2.3239,-2.3231,-2.3212,-2.3211,-2.3211,-2.321,0,-2.3163,-2.3146,-2.3201,-2.3198,-2.3198,-2.3239,-2.3235,-2.3265,-2.3255,-2.3295,-2.3302,-2.3286,-2.3316,-2.3297,-2.3328,-2.3317,-2.3383,-2.3369,-2.3381,-2.3376,-2.3427,-2.3423,-2.3598,-2.3619,-2.3458,-2.346,-2.3461,0,-2.3242,-2.328,-2.328,-2.3298,-2.3302,-2.3332,-2.3348,-2.3322,-2.334,-2.3351,-2.3379,-2.3406,-2.3426,-2.3476,-2.3467,-2.349,-2.3475,-2.3536,-2.3479,-2.3485,-2.3475,-2.3473,-2.3476,-2.3547,-2.3548,-2.355,-2.3551,0,-2.3384,-2.3374,-2.3397,-2.3419,-2.3438,-2.3454,-2.3466,-2.3483,-2.3457,-2.3479,-2.3509,-2.3525,-2.3556,-2.3583,-2.3602,-2.3603,-2.3573,-2.357,-2.3582,-2.359,-2.3595,-2.3592,-2.3411,-2.3565,-2.3564,-2.3563,-2.3562,-2.3562,-2.3489,-2.352,-2.3525,-2.3553,-2.356,-2.3572,-2.36,-2.3593,-2.3618,-2.3641,-2.3625,-2.3661,-2.3667,-2.369,-2.3695,-2.3722,-2.3698,-2.3717,-2.3721,-2.3726,-2.3732,-2.3592,-2.3726,-2.3726,-2.3725,-2.3725,-2.3725,0,-2.3627,-2.3629,-2.3655,-2.3673,-2.3695,-2.3665,-2.3677,-2.3697,-2.3729,-2.3738,-2.3758,-2.3793,-2.3819,-2.3813,-2.3836,-2.3859,-2.3846,-2.3866,-2.3863,-2.3864,-2.3753,-2.374,-2.3877,-2.3877,-2.3877,-2.3876,-2.3876,-2.3876,-2.3702,-2.3753,-2.3744,-2.3798,-2.3798,-2.3833,-2.3843,-2.3854,-2.386,-2.3901,-2.3922,-2.3918,-2.392,-2.3943,-2.3966,-2.3963,-2.3973,-2.3998,-2.3991,-2.3887,-2.3872,-2.3858,-2.3844,-2.4001,-2.4001,-2.4099,-2.41,-2.41]},{"header":{"parameterUnit":"m.s-1","parameterCategory":1,"la1":30.2991,"la2":30.254,"lo1":-89.0895,"lo2":-89.0444,"dy":0.0017,"dx":0.0017,"nx":28,"ny":28,"refTime":"2023-10-26T21:00:00:Z","depth":0,"parameterNumber":3,"parameterNumberName":"V-component_of_WINDS"},"data":[0,0,0,0,0,0,0,0,0,0,0,0,0,0,0,0,0,0,0,0,0,0,0,0,0,0,0,0,0,0,0,0,0,0,0,0,0,0,0,0,0,0,0,0,0,0,0,0,0,0,0,0,0,0,0,0,0,0,-0.0963,-0.0962,0,-0.0866,-0.0864,-0.0863,-0.0843,-0.0844,-0.0845,-0.0845,-0.0745,-0.0742,-0.0739,0,0,0,0,0,0,0,0,0,0,0,0,0,-0.1128,-0.1125,-0.0963,-0.0962,-0.096,-0.0866,-0.0864,-0.0863,-0.0843,-0.0844,-0.0845,-0.0846,-0.0746,-0.0742,-0.0738,0,0,0,0,0,0,0,0,0,0,0,0,0,-0.1046,-0.1124,-0.0963,-0.0939,-0.0936,-0.0866,-0.0864,-0.0863,-0.0843,-0.0844,-0.0845,-0.0846,-0.0748,-0.0743,-0.0738,-0.0685,0,0,-0.0723,-0.072,0,0,0,0,0,0,0,0,-0.1051,-0.104,-0.0944,-0.094,-0.0937,-0.0868,-0.0886,-0.0803,-0.0843,-0.0878,-0.0845,-0.0847,-0.0785,-0.0777,-0.0756,-0.068,-0.0676,-0.0722,-0.0719,-0.0717,-0.0716,0,0,0,0,0,0,0,-0.1057,-0.1044,-0.0924,-0.0942,-0.0938,-0.0932,-0.0922,-0.087,-0.0827,-0.0875,-0.0873,-0.0862,-0.0783,-0.0761,-0.0754,-0.0675,-0.0722,-0.0718,-0.0715,-0.0713,-0.0547,-0.0545,0,0,0,0,0,0,-0.1067,-0.1049,-0.0927,-0.0921,-0.0998,-0.0928,-0.0917,-0.0889,-0.0827,-0.0819,-0.0861,-0.0862,-0.0769,-0.076,-0.075,-0.0682,-0.0717,-0.0712,-0.0709,-0.0548,-0.0546,-0.0545,0,0,0,0,0,0,-0.107,-0.1056,-0.0931,-0.0985,-0.0968,-0.0924,-0.0893,-0.0886,-0.0864,-0.0817,-0.0809,-0.0847,-0.077,-0.0757,-0.0701,-0.0678,-0.071,-0.0705,-0.055,-0.0548,-0.0546,-0.0546,0,0,0,0,0,0,-0.1075,-0.1058,-0.1038,-0.0984,-0.0966,-0.0884,-0.0892,-0.0884,-0.0856,-0.0855,-0.0801,-0.0793,-0.077,-0.0708,-0.0696,-0.0672,-0.0702,-0.0552,-0.0549,-0.0546,-0.0548,-0.0544,-0.0541,0,0,0,0,0,-0.1081,-0.1042,-0.1037,-0.1022,-0.094,-0.0883,-0.0872,-0.0846,-0.0854,-0.0833,-0.0802,-0.0795,-0.0683,-0.0703,-0.0688,-0.0663,-0.0553,-0.055,-0.0547,-0.0549,-0.0545,-0.0541,0,0,0,0,0,0,-0.1095,-0.1035,-0.1028,-0.0971,-0.0932,-0.088,-0.0852,-0.0843,-0.08,-0.0802,-0.0771,-0.0759,-0.0703,-0.0678,-0.07,-0.0607,-0.0618,-0.0612,-0.0625,-0.0621,-0.0618,-0.0624,-0.0697,0,0,0,0,0,-0.1091,-0.105,-0.1,-0.0955,-0.0935,-0.0897,-0.0871,-0.0854,-0.0813,-0.0796,-0.0761,-0.0721,-0.0676,-0.0647,-0.0604,-0.0544,-0.0531,-0.052,-0.0516,-0.0514,-0.0508,-0.0472,-0.0465,-0.0535,-0.0535,-0.0535,0,0,-0.1083,-0.1045,-0.1022,-0.0956,-0.0924,-0.0881,-0.0884,-0.0839,-0.0806,-0.0789,-0.0733,-0.0706,-0.0658,-0.0599,-0.0571,-0.0576,-0.0486,-0.051,-0.0508,-0.0504,-0.0468,-0.0461,-0.0456,-0.0532,-0.0533,-0.0533,0,0,-0.1046,-0.1015,-0.0972,-0.0939,-0.089,-0.0864,-0.0854,-0.0802,-0.0783,-0.0726,-0.0712,-0.0672,-0.0597,-0.0562,-0.0535,-0.0482,-0.0473,-0.0469,-0.0451,-0.0416,-0.0411,-0.0406,-0.0384,-0.0377,-0.0464,-0.0464,-0.0464,0,-0.1042,-0.0978,-0.0951,-0.0906,-0.0876,-0.0859,-0.0814,-0.0783,-0.0722,-0.0702,-0.0708,-0.0611,-0.0578,-0.0509,-0.0496,-0.0475,-0.0461,-0.0475,-0.0414,-0.0408,-0.0403,-0.0382,-0.0375,-0.0464,-0.0464,-0.0464,-0.0464,0,-0.0974,-0.0929,-0.09,-0.0841,-0.0808,-0.0764,-0.0729,-0.0699,-0.0684,-0.0658,-0.0598,-0.0558,-0.0504,-0.0487,-0.0473,-0.0415,-0.0419,-0.042,-0.0431,-0.0397,-0.0377,-0.0369,-0.0463,-0.0463,-0.0464,-0.0464,0,0,-0.0944,-0.0868,-0.0858,-0.0829,-0.0773,-0.0737,-0.0691,-0.0638,-0.0612,-0.057,-0.0529,-0.0464,-0.0463,-0.0432,-0.0414,-0.0384,-0.0341,-0.0387,-0.0386,-0.0378,-0.0272,-0.027,-0.0261,-0.0335,-0.0333,-0.0332,-0.0275,0,-0.0898,-0.0815,-0.0788,-0.0718,-0.0674,-0.0656,-0.0615,-0.0575,-0.0549,-0.0507,-0.0478,-0.0431,-0.0436,-0.0416,-0.0385,-0.0353,-0.0319,-0.0357,-0.0295,-0.0293,-0.0305,-0.0251,-0.025,-0.0198,-0.0267,-0.0266,-0.0265,0,-0.0834,-0.079,-0.0715,-0.0661,-0.0642,-0.0606,-0.0554,-0.0515,-0.0469,-0.0451,-0.0415,-0.0399,-0.0348,-0.0362,-0.029,-0.0317,-0.029,-0.027,-0.0267,-0.0259,-0.0275,-0.0239,-0.0181,-0.0172,-0.0252,-0.0253,-0.0254,0,-0.0816,-0.0738,-0.0683,-0.0659,-0.0596,-0.057,-0.0542,-0.0497,-0.0466,-0.042,-0.04,-0.0349,-0.0321,-0.0282,-0.0251,-0.0265,-0.0181,-0.0194,-0.0163,-0.0164,-0.0145,-0.0146,-0.0079,-0.0131,-0.0131,-0.0132,-0.0132,0,-0.0767,-0.0721,-0.0673,-0.0639,-0.0586,-0.0556,-0.0504,-0.0476,-0.0435,-0.0393,-0.0375,-0.0336,-0.0299,-0.0255,-0.0231,-0.0174,-0.0162,-0.0145,-0.0139,-0.0145,-0.0147,-0.0126,-0.0128,-0.0129,-0.013,-0.013,-0.0131,0,-0.0738,-0.0704,-0.0642,-0.0586,-0.0571,-0.0534,-0.0486,-0.0451,-0.0423,-0.0371,-0.0357,-0.0313,-0.026,-0.0226,-0.0159,-0.0142,-0.0078,-0.0075,-0.0094,-0.0091,-0.0061,-0.0064,0.0024,0.0038,-0.0026,-0.0026,-0.0025,0,-0.0708,-0.0672,-0.0612,-0.0582,-0.0554,-0.0508,-0.0476,-0.0443,-0.041,-0.0353,-0.0324,-0.027,-0.0225,-0.0141,-0.0102,-0.005,-0.0043,-0.0016,-0.0035,-0.0042,-0.004,-0.0041,-0.0036,-0.0013,-0.0012,-0.0012,-0.0011,0,-0.0657,-0.0642,-0.0596,-0.0544,-0.0506,-0.0463,-0.042,-0.0397,-0.0357,-0.0321,-0.0266,-0.0231,-0.0161,-0.0107,-0.005,-0.0021,-0.0008,-0.0006,0.0005,-0.0001,-0.0012,-0.0003,-0.0083,-0.0008,-0.0008,-0.0008,-0.0008,-0.0009,-0.0625,-0.0591,-0.0542,-0.0491,-0.0456,-0.0416,-0.0379,-0.0346,-0.03,-0.024,-0.0224,-0.0166,-0.0118,-0.0041,-0.001,0.0037,0.0034,0.0048,0.0052,0.0055,0.0057,-0.0021,0.0047,0.0047,0.0047,0.0047,0.0047,0,-0.0571,-0.0538,-0.0492,-0.0432,-0.0391,-0.0383,-0.0335,-0.0301,-0.025,-0.0206,-0.0161,-0.0097,-0.0043,0.0,0.0056,0.0085,0.0093,0.0099,0.0098,0.0105,0.0056,0.0042,0.0092,0.0092,0.0092,0.0092,0.0092,0.0092,-0.0538,-0.0479,-0.0458,-0.038,-0.0348,-0.029,-0.0263,-0.0225,-0.0189,-0.0118,-0.0073,-0.0045,-0.0,0.0059,0.0109,0.0121,0.0142,0.0148,0.016,0.0113,0.0108,0.0104,0.0092,0.0151,0.0151,0.0207,0.0207,0.0208]}]]